Monroe, Wisconsin, United States (53566)
Lat: 42.60N, Lon: 89.64W
Wx Zone: WIZ068
Local Info
Past Weather Observations for Today

NOTE: This archive is for the closest National Weather Service station to Monroe. Information may differ from the station used for current weather conditions.

Click here for Long-term Archive

Time Weather Temperature Dewpoint Humidity Pressure Winds Precip Visibility
20:55
Clear
30°F / -1°C 21°F / -6°C 69% 30.42 in
(1030 mb)
NNW 9.2 mph
(NNW 15 kph)
- 10SM
20:35
Clear
32°F / 0°C 19°F / -7°C 60% 30.39 in
(1029 mb)
NNW 8.1 mph
(NNW 13 kph)
- 10SM
20:15
Clear
32°F / 0°C 19°F / -7°C 60% 30.39 in
(1029 mb)
N 9.2 mph
(N 15 kph)
- 10SM
19:55
Clear
32°F / 0°C 19°F / -7°C 60% 30.39 in
(1029 mb)
NNW 8.1 mph
(NNW 13 kph)
- 10SM
19:35
Clear
32°F / 0°C 19°F / -7°C 60% 30.39 in
(1029 mb)
N 8.1 mph
(N 13 kph)
- 10SM
19:15
Clear
32°F / 0°C 19°F / -7°C 60% 30.39 in
(1029 mb)
N 8.1 mph
(N 13 kph)
- 10SM
18:55
Clear
32°F / 0°C 21°F / -6°C 64% 30.39 in
(1029 mb)
N 6.9 mph
(N 11 kph)
- 10SM
18:35
Clear
32°F / 0°C 21°F / -6°C 64% 30.39 in
(1029 mb)
N 8.1 mph
(N 13 kph)
- 10SM
18:15
Clear
32°F / 0°C 19°F / -7°C 60% 30.39 in
(1029 mb)
N 9.2 mph
(N 15 kph)
- 10SM
17:40
Partly Cloudy
34°F / 1°C 19°F / -7°C 56% 30.39 in
(1029 mb)
N 10.4 mph
(N 17 kph)
- 10SM
17:15
Partly Cloudy
34°F / 1°C 21°F / -6°C 60% 30.36 in
(1028 mb)
N 11.5 mph
(N 19 kph)
- 10SM
16:55
Partly Cloudy
34°F / 1°C 21°F / -6°C 60% 30.36 in
(1028 mb)
N 16.1 mph
(N 26 kph)
- 10SM
16:35
Partly Cloudy
36°F / 2°C 19°F / -7°C 52% 30.36 in
(1028 mb)
N 13.8 mph
(N 22 kph)
- 10SM
16:15
Mostly Cloudy
36°F / 2°C 19°F / -7°C 52% 30.36 in
(1028 mb)
N 16.1 mph
(N 26 kph)
- 10SM
15:55
Partly Cloudy
36°F / 2°C 19°F / -7°C 52% 30.36 in
(1028 mb)
N 16.1 mph
(N 26 kph)
- 10SM
15:35
Partly Cloudy
36°F / 2°C 19°F / -7°C 52% 30.33 in
(1027 mb)
N 15 mph
(N 24 kph)
- 10SM
15:15
Mostly Cloudy
37°F / 3°C 21°F / -6°C 52% 30.33 in
(1027 mb)
N 24.2 mph
(N 39 kph)
- 10SM
14:55
Mostly Cloudy
37°F / 3°C 21°F / -6°C 52% 30.33 in
(1027 mb)
N 17.3 mph
(N 28 kph)
- 10SM
14:35
Partly Cloudy
37°F / 3°C 21°F / -6°C 52% 30.33 in
(1027 mb)
N 18.4 mph
(N 30 kph)
- 10SM
14:15
Mostly Cloudy
37°F / 3°C 21°F / -6°C 52% 30.3 in
(1026 mb)
N 17.3 mph
(N 28 kph)
- 10SM
13:55
Mostly Cloudy
37°F / 3°C 21°F / -6°C 52% 30.3 in
(1026 mb)
N 24.2 mph
(N 39 kph)
- 10SM
13:35
Mostly Cloudy
37°F / 3°C 21°F / -6°C 52% 30.3 in
(1026 mb)
N 20.7 mph
(N 33 kph)
- 10SM
13:15
Mostly Cloudy
37°F / 3°C 21°F / -6°C 52% 30.3 in
(1026 mb)
N 24.2 mph
(N 39 kph)
- 10SM
12:50
Overcast
37°F / 3°C 21°F / -6°C 52% 30.3 in
(1026 mb)
N 21.9 mph
(N 35 kph)
- 10SM
12:35
Overcast
37°F / 3°C 23°F / -5°C 56% 30.3 in
(1026 mb)
N 19.6 mph
(N 32 kph)
- 10SM
12:15
Overcast
37°F / 3°C 23°F / -5°C 56% 30.3 in
(1026 mb)
N 24.2 mph
(N 39 kph)
- 10SM
11:55
Overcast
36°F / 2°C 23°F / -5°C 60% 30.3 in
(1026 mb)
N 23 mph
(N 37 kph)
- 10SM
11:35
Overcast
36°F / 2°C 23°F / -5°C 60% 30.3 in
(1026 mb)
N 23 mph
(N 37 kph)
- 10SM
11:15
Mostly Cloudy
36°F / 2°C 23°F / -5°C 60% 30.3 in
(1026 mb)
N 21.9 mph
(N 35 kph)
- 10SM
10:55
Mostly Cloudy
36°F / 2°C 23°F / -5°C 60% 30.3 in
(1026 mb)
N 24.2 mph
(N 39 kph)
- 10SM
10:35
Mostly Cloudy
36°F / 2°C 23°F / -5°C 60% 30.3 in
(1026 mb)
N 20.7 mph
(N 33 kph)
- 10SM
10:15
Mostly Cloudy
36°F / 2°C 21°F / -6°C 56% 30.3 in
(1026 mb)
N 27.6 mph
(N 44 kph)
- 10SM
09:55
Mostly Cloudy
36°F / 2°C 23°F / -5°C 60% 30.27 in
(1025 mb)
N 25.3 mph
(N 41 kph)
- 10SM
09:35
Partly Cloudy
36°F / 2°C 23°F / -5°C 60% 30.27 in
(1025 mb)
N 20.7 mph
(N 33 kph)
- 10SM
09:15
Partly Cloudy
36°F / 2°C 23°F / -5°C 60% 30.27 in
(1025 mb)
N 25.3 mph
(N 41 kph)
- 10SM
08:55
Partly Cloudy
36°F / 2°C 23°F / -5°C 60% 30.27 in
(1025 mb)
N 19.6 mph
(N 32 kph)
- 10SM
08:35
Partly Cloudy
34°F / 1°C 23°F / -5°C 65% 30.24 in
(1024 mb)
N 25.3 mph
(N 41 kph)
- 10SM
08:15
Partly Cloudy
34°F / 1°C 25°F / -4°C 70% 30.24 in
(1024 mb)
N 23 mph
(N 37 kph)
- 10SM
07:55
Mostly Cloudy
34°F / 1°C 25°F / -4°C 70% 30.24 in
(1024 mb)
N 19.6 mph
(N 32 kph)
- 10SM
07:35
Overcast
34°F / 1°C 25°F / -4°C 70% 30.24 in
(1024 mb)
N 19.6 mph
(N 32 kph)
- 10SM
07:15
Overcast
32°F / 0°C 25°F / -4°C 75% 30.24 in
(1024 mb)
N 20.7 mph
(N 33 kph)
- 10SM
06:50
Overcast
32°F / 0°C 27°F / -3°C 80% 30.21 in
(1023 mb)
N 25.3 mph
(N 41 kph)
- 10SM
06:35
Overcast
32°F / 0°C 27°F / -3°C 80% 30.21 in
(1023 mb)
NNW 19.6 mph
(NNW 32 kph)
- 10SM
06:15
Mostly Cloudy
34°F / 1°C 27°F / -3°C 75% 30.21 in
(1023 mb)
NNW 21.9 mph
(NNW 35 kph)
- 10SM
05:55
Mostly Cloudy
32°F / 0°C 28°F / -2°C 87% 30.18 in
(1022 mb)
NNW 19.6 mph
(NNW 32 kph)
- 10SM
05:35
Overcast
32°F / 0°C 28°F / -2°C 87% 30.18 in
(1022 mb)
NNW 19.6 mph
(NNW 32 kph)
- 10SM
05:15
Overcast
Light Snow
32°F / 0°C 30°F / -1°C 93% 30.18 in
(1022 mb)
NNW 17.3 mph
(NNW 28 kph)
- 10SM
04:55
Overcast
Light Snow
32°F / 0°C 30°F / -1°C 93% 30.18 in
(1022 mb)
NNW 13.8 mph
(NNW 22 kph)
- 10SM
04:30
Mostly Cloudy
32°F / 0°C 27°F / -3°C 80% 30.15 in
(1021 mb)
NNW 20.7 mph
(NNW 33 kph)
- 10SM
04:15
Overcast
32°F / 0°C 27°F / -3°C 80% 30.15 in
(1021 mb)
NNW 17.3 mph
(NNW 28 kph)
- 10SM
03:55
Overcast
32°F / 0°C 23°F / -5°C 69% 30.15 in
(1021 mb)
NNW 17.3 mph
(NNW 28 kph)
- 10SM
03:35
Overcast
34°F / 1°C 23°F / -5°C 65% 30.15 in
(1021 mb)
NNW 19.6 mph
(NNW 32 kph)
- 10SM
03:15
Mostly Cloudy
34°F / 1°C 23°F / -5°C 65% 30.12 in
(1020 mb)
NNW 15 mph
(NNW 24 kph)
- 10SM
02:55
Overcast
34°F / 1°C 25°F / -4°C 70% 30.12 in
(1020 mb)
NW 19.6 mph
(NW 32 kph)
- 10SM
02:35
Overcast
36°F / 2°C 27°F / -3°C 70% 30.12 in
(1020 mb)
NW 18.4 mph
(NW 30 kph)
- 10SM
02:15
Overcast
36°F / 2°C 27°F / -3°C 70% 30.12 in
(1020 mb)
NNW 16.1 mph
(NNW 26 kph)
- 10SM
01:55
Overcast
37°F / 3°C 28°F / -2°C 70% 30.09 in
(1019 mb)
NW 18.4 mph
(NW 30 kph)
- 10SM
01:35
Overcast
Light Rain
41°F / 5°C 30°F / -1°C 66% 30.09 in
(1019 mb)
NNW 16.1 mph
(NNW 26 kph)
- 10SM
01:15
Overcast
41°F / 5°C 32°F / 0°C 70% 30.09 in
(1019 mb)
NW 8.1 mph
(NW 13 kph)
- 10SM
00:55
Overcast
41°F / 5°C 30°F / -1°C 66% 30.09 in
(1019 mb)
NNW 10.4 mph
(NNW 17 kph)
- 10SM
00:35
Overcast
43°F / 6°C 30°F / -1°C 61% 30.09 in
(1019 mb)
NNW 11.5 mph
(NNW 19 kph)
- 10SM
00:15
Overcast
43°F / 6°C 32°F / 0°C 66% 30.06 in
(1018 mb)
NNW 17.3 mph
(NNW 28 kph)
- 10SM
Time Weather Temperature Dewpoint Humidity Pressure Winds Precip Visibility


Weather for websites

WeatherForYou.com, LLC is not responsible for any damages or problems caused by this service. Current weather conditions are obtained from the closest station including government and personal stations which may have varying degrees of accuracy. Weather forecasts are derived from the NOAA NDFD. Like all things, this site belongs to Jesus Christ... He just trusts me to maintain it. If you have any questions or comments email webmaster@weatherforyou.com

Copyright © 2014, WeatherForYou.com LLC. All rights reserved.